When you browse on this site, cookies collect data to enhance your experience and personalize the content and advertising you see.
Visit our Privacy Policy to learn more. By continuing to use the site, you agree to this use of cookies and data.
  • In Hungary
  • List of Countries
  • For 7 days
  • Water Temperature
  • Weather Map
  • News
  • Weather Widgets
  • user-avatar
    Login

    Hourly Weather Cohok

    Today, 24 October, Thursday

    Time Temperature Precipitation Wind Pressure Humidity
    00:00 +3°C° 0 mm 0 mps 596 mmHg 78%
    01:00 +3°C° 0 mm 0 mps 596 mmHg 80%
    02:00 +3°C° 0 mm 0 mps 596 mmHg 82%
    03:00 +2°C° 0 mm 0 mps 596 mmHg 85%
    04:00 +2°C° 0 mm 0 mps 596 mmHg 85%
    05:00 +2°C° 0 mm 0 mps 596 mmHg 84%
    06:00 +2°C° 0 mm 0 mps 596 mmHg 84%
    07:00 +4°C° 0 mm 0 mps 596 mmHg 73%
    08:00 +6°C° 0 mm 0 mps 597 mmHg 63%
    09:00 +7°C° 0 mm 0 mps 598 mmHg 52%
    10:00 +9°C° 0 mm 1 mps 598 mmHg 51%
    11:00 +10°C° 0 mm 1 mps 599 mmHg 49%
    12:00 +10°C° 0 mm 2 mps 599 mmHg 48%
    13:00 +10°C° 0 mm 2 mps 598 mmHg 51%
    14:00 +10°C° 0 mm 1 mps 598 mmHg 55%
    15:00 +10°C° 0 mm 1 mps 598 mmHg 58%
    16:00 +8°C° 0 mm 1 mps 597 mmHg 66%
    17:00 +6°C° 0 mm 1 mps 596 mmHg 74%
    18:00 +4°C° 0 mm 0 mps 596 mmHg 82%
    19:00 +3°C° 0 mm 0 mps 596 mmHg 82%
    20:00 +3°C° 0 mm 0 mps 596 mmHg 83%
    21:00 +3°C° 0 mm 0 mps 596 mmHg 83%
    22:00 +4°C° 0 mm 1 mps 596 mmHg 85%
    23:00 +4°C° 0 mm 1 mps 596 mmHg 87%

    Tomorrow, 25 October, Friday

    Time Temperature Precipitation Wind Pressure Humidity
    00:00 +4°C° 0 mm 1 mps 595 mmHg 89%
    01:00 +4°C° 0 mm 1 mps 595 mmHg 89%
    02:00 +4°C° 0 mm 1 mps 595 mmHg 90%
    03:00 +4°C° 0 mm 1 mps 595 mmHg 90%
    04:00 +4°C° 0 mm 1 mps 595 mmHg 89%
    05:00 +4°C° 0 mm 1 mps 595 mmHg 88%
    06:00 +3°C° 0 mm 1 mps 595 mmHg 86%
    07:00 +5°C° 0 mm 1 mps 595 mmHg 78%
    08:00 +6°C° 0 mm 1 mps 596 mmHg 69%
    09:00 +8°C° 0 mm 1 mps 597 mmHg 61%
    10:00 +9°C° 0 mm 1 mps 597 mmHg 59%
    11:00 +10°C° 0 mm 1 mps 597 mmHg 57%
    12:00 +11°C° 0 mm 1 mps 597 mmHg 55%
    13:00 +10°C° 0 mm 1 mps 597 mmHg 57%
    14:00 +10°C° 0 mm 1 mps 597 mmHg 60%
    15:00 +10°C° 0 mm 1 mps 596 mmHg 62%
    16:00 +8°C° 0 mm 1 mps 596 mmHg 69%
    17:00 +7°C° 0 mm 1 mps 595 mmHg 77%
    18:00 +4°C° 0 mm 0 mps 594 mmHg 84%
    19:00 +4°C° 0 mm 0 mps 594 mmHg 85%
    20:00 +3°C° 0 mm 0 mps 594 mmHg 85%
    21:00 +3°C° 0 mm 0 mps 594 mmHg 86%
    22:00 +4°C° 0 mm 1 mps 594 mmHg 87%
    23:00 +4°C° 0 mm 1 mps 594 mmHg 89%

    Day after tomorrow, 26 October, Saturday

    Time Temperature Precipitation Wind Pressure Humidity
    00:00 +3°C° 0 mm 1 mps 594 mmHg 90%
    01:00 +3°C° 0 mm 1 mps 594 mmHg 90%
    02:00 +3°C° 0 mm 1 mps 594 mmHg 89%
    03:00 +3°C° 0 mm 1 mps 594 mmHg 89%
    04:00 +3°C° 0 mm 1 mps 594 mmHg 87%
    05:00 +3°C° 0 mm 1 mps 594 mmHg 86%
    06:00 +2°C° 0 mm 0 mps 594 mmHg 85%
    07:00 +4°C° 0 mm 0 mps 595 mmHg 77%
    08:00 +6°C° 0 mm 0 mps 596 mmHg 68%
    09:00 +8°C° 0 mm 0 mps 597 mmHg 60%
    10:00 +9°C° 0 mm 1 mps 597 mmHg 59%
    11:00 +10°C° 0 mm 1 mps 597 mmHg 57%
    12:00 +11°C° 0 mm 1 mps 597 mmHg 55%
    13:00 +10°C° 0.2 mm 1 mps 597 mmHg 59%
    14:00 +10°C° 0.2 mm 1 mps 597 mmHg 64%
    15:00 +9°C° 0.2 mm 1 mps 596 mmHg 68%
    16:00 +8°C° 0.2 mm 1 mps 596 mmHg 75%
    17:00 +6°C° 0.2 mm 1 mps 595 mmHg 82%
    18:00 +4°C° 0.2 mm 0 mps 595 mmHg 88%
    19:00 +3°C° 0 mm 0 mps 595 mmHg 88%
    20:00 +3°C° 0 mm 0 mps 595 mmHg 88%
    21:00 +3°C° 0 mm 0 mps 595 mmHg 87%
    22:00 +3°C° 0 mm 0 mps 595 mmHg 87%
    23:00 +3°C° 0 mm 0 mps 595 mmHg 87%

    27 October, Sunday

    Time Temperature Precipitation Wind Pressure Humidity
    00:00 +2°C° 0 mm 0 mps 594 mmHg 86%
    01:00 +2°C° 0 mm 0 mps 594 mmHg 86%
    02:00 +2°C° 0 mm 0 mps 594 mmHg 85%
    03:00 +3°C° 0 mm 1 mps 594 mmHg 84%
    04:00 +3°C° 0 mm 1 mps 594 mmHg 83%
    05:00 +3°C° 0 mm 1 mps 594 mmHg 81%
    06:00 +3°C° 0 mm 1 mps 595 mmHg 80%
    07:00 +5°C° 0 mm 1 mps 596 mmHg 71%
    08:00 +7°C° 0 mm 1 mps 597 mmHg 63%
    09:00 +9°C° 0 mm 1 mps 597 mmHg 54%
    10:00 +10°C° 0 mm 1 mps 598 mmHg 51%
    11:00 +11°C° 0 mm 1 mps 598 mmHg 47%
    12:00 +12°C° 0 mm 1 mps 598 mmHg 44%
    13:00 +11°C° 0 mm 1 mps 598 mmHg 45%
    14:00 +11°C° 0 mm 1 mps 598 mmHg 47%
    15:00 +11°C° 0 mm 1 mps 597 mmHg 49%
    16:00 +9°C° 0 mm 1 mps 597 mmHg 57%
    17:00 +7°C° 0 mm 1 mps 596 mmHg 65%
    18:00 +5°C° 0 mm 1 mps 595 mmHg 74%
    19:00 +5°C° 0 mm 1 mps 595 mmHg 72%
    20:00 +4°C° 0 mm 1 mps 595 mmHg 71%
    21:00 +4°C° 0 mm 1 mps 595 mmHg 70%
    22:00 +4°C° 0 mm 1 mps 595 mmHg 68%
    23:00 +4°C° 0 mm 1 mps 595 mmHg 66%

    28 October, Monday

    Time Temperature Precipitation Wind Pressure Humidity
    00:00 +3°C° 0 mm 0 mps 595 mmHg 64%
    01:00 +4°C° 0 mm 1 mps 595 mmHg 64%
    02:00 +3°C° 0 mm 1 mps 595 mmHg 64%
    03:00 +3°C° 0 mm 1 mps 595 mmHg 64%
    04:00 +3°C° 0 mm 1 mps 595 mmHg 64%
    05:00 +3°C° 0 mm 1 mps 595 mmHg 63%
    06:00 +3°C° 0 mm 1 mps 595 mmHg 63%
    07:00 +5°C° 0 mm 1 mps 596 mmHg 57%
    08:00 +7°C° 0 mm 1 mps 597 mmHg 51%
    09:00 +9°C° 0 mm 1 mps 598 mmHg 45%
    10:00 +10°C° 0 mm 1 mps 598 mmHg 44%
    11:00 +12°C° 0 mm 1 mps 599 mmHg 44%
    12:00 +13°C° 0 mm 2 mps 599 mmHg 43%
    13:00 +12°C° 0 mm 2 mps 598 mmHg 45%
    14:00 +12°C° 0 mm 2 mps 598 mmHg 48%
    15:00 +12°C° 0 mm 2 mps 598 mmHg 51%
    16:00 +10°C° 0 mm 1 mps 597 mmHg 59%
    17:00 +8°C° 0 mm 1 mps 596 mmHg 68%
    18:00 +6°C° 0 mm 1 mps 595 mmHg 76%
    19:00 +5°C° 0 mm 1 mps 595 mmHg 71%
    20:00 +5°C° 0 mm 1 mps 594 mmHg 66%
    21:00 +5°C° 0 mm 1 mps 594 mmHg 61%
    22:00 +5°C° 0 mm 1 mps 594 mmHg 58%
    23:00 +4°C° 0 mm 1 mps 594 mmHg 54%

    29 October, Tuesday

    Time Temperature Precipitation Wind Pressure Humidity
    00:00 +4°C° 0 mm 1 mps 594 mmHg 51%
    01:00 +4°C° 0 mm 1 mps 594 mmHg 50%
    02:00 +4°C° 0 mm 1 mps 593 mmHg 49%
    03:00 +4°C° 0 mm 1 mps 593 mmHg 49%
    04:00 +4°C° 0 mm 1 mps 593 mmHg 48%
    05:00 +4°C° 0 mm 1 mps 593 mmHg 46%
    06:00 +4°C° 0 mm 1 mps 593 mmHg 45%
    07:00 +6°C° 0 mm 1 mps 594 mmHg 42%
    08:00 +8°C° 0 mm 1 mps 595 mmHg 39%
    09:00 +10°C° 0 mm 1 mps 596 mmHg 36%
    10:00 +11°C° 0 mm 1 mps 596 mmHg 36%
    11:00 +12°C° 0 mm 1 mps 596 mmHg 36%
    12:00 +13°C° 0 mm 2 mps 596 mmHg 35%
    13:00 +13°C° 0 mm 1 mps 596 mmHg 38%
    14:00 +13°C° 0 mm 1 mps 596 mmHg 40%
    15:00 +12°C° 0 mm 1 mps 595 mmHg 43%
    16:00 +10°C° 0 mm 1 mps 594 mmHg 52%
    17:00 +8°C° 0 mm 1 mps 593 mmHg 61%
    18:00 +5°C° 0 mm 0 mps 593 mmHg 70%
    19:00 +5°C° 0 mm 0 mps 593 mmHg 70%
    20:00 +5°C° 0 mm 1 mps 593 mmHg 70%
    21:00 +5°C° 0 mm 1 mps 593 mmHg 70%
    22:00 +5°C° 0 mm 1 mps 592 mmHg 70%
    23:00 +5°C° 0 mm 1 mps 592 mmHg 70%
    Show more